Address 0x83e1190e931ca0f416138b55a5760ca016407397 4

Txn Hash Method
Block
From
To
Value [Txn Fee]
0x431eb70735de10445400e67a7030e6faf4e12239cfa274a38789ebe3efc69d7f0xd44f70b4144957512022-08-20 23:39:2838 days 4 mins ago0x83e1190e931ca0f416138b55a5760ca016407397OUT 0xc95daf083b754210458e62ead997453f74f470720 ETH0.00002868
0xb492495bf786a16450c088066006df6983f83c82a75edd44c34168f66fe2e6940xd44f70b4144957492022-08-20 23:39:2138 days 4 mins ago0x83e1190e931ca0f416138b55a5760ca016407397OUT 0xc95daf083b754210458e62ead997453f74f470720 ETH0.00003004
0x164d54ceccd9767b0d565415965fb2496e26fafc9f518c50b9b70ef84834e18b0xd44f70b4144957442022-08-20 23:38:5238 days 5 mins ago0x83e1190e931ca0f416138b55a5760ca016407397OUT 0xc95daf083b754210458e62ead997453f74f470720 ETH0.0000287
0xe6f0be39a00e0b86ef67d4bebd27c5c584df7cc8993e9c3fca02143b08f946f10xd44f70b4144957302022-08-20 23:37:4738 days 6 mins ago0x83e1190e931ca0f416138b55a5760ca016407397OUT 0xc95daf083b754210458e62ead997453f74f470720 ETH0.00003005
0x6fea1d5bc0e32080f038873216761bfd4fbbad0fa4093d82acbc607937087b200xd44f70b4144957212022-08-20 23:37:2238 days 6 mins ago0x83e1190e931ca0f416138b55a5760ca016407397OUT 0xc95daf083b754210458e62ead997453f74f470720 ETH0.00001808
0x72031913e636bc459b32c25db23167cac8f4e923df52a5195d86c7d6de54000e0xd44f70b4141464132022-08-15 20:42:2643 days 3 hrs ago0x83e1190e931ca0f416138b55a5760ca016407397OUT 0xc95daf083b754210458e62ead997453f74f470724.9 ETH0.00001244
0x304648ff866e6f5fa2d8a6cc0c837fbc41a0468fe918174617507373c5a48487Transfer141464112022-08-15 20:41:4543 days 3 hrs ago0x94f2190e931ca0f416138b55a5760ca0164084a8 IN 0x83e1190e931ca0f416138b55a5760ca0164073974.86035887990674 ETH0
0x74d2b1e0cbcacbb98d74a0c1e02a071ba0c15712d0c068a581c91a74a68089c4Withdraw141463532022-08-15 20:34:0443 days 3 hrs ago0x83e1190e931ca0f416138b55a5760ca016407397OUT0xc778417e063141139fce010982780140aa0cd5ab0 ETH0.00000212
0x045106d5f2cd9b268ea0397653a61c435e654b3760c93580d695fafb63f121f50xd44f70b4141462882022-08-15 20:25:3343 days 3 hrs ago0x83e1190e931ca0f416138b55a5760ca016407397OUT 0xc95daf083b754210458e62ead997453f74f470720 ETH0.00001976
0x82e5c48d4ffaab6191bb2ef9ffc11de2df5a71824242a09717854ca8c43c83030xd44f70b4141462842022-08-15 20:25:0543 days 3 hrs ago0x83e1190e931ca0f416138b55a5760ca016407397OUT 0xc95daf083b754210458e62ead997453f74f470720 ETH0.00001391
0x4798b784a352e976572e2112748bc9e6dfa12e66fe42fe08205878cb791ec3230xd44f70b4141462792022-08-15 20:24:3043 days 3 hrs ago0x83e1190e931ca0f416138b55a5760ca016407397OUT 0xc95daf083b754210458e62ead997453f74f470720.9 ETH0.00001244
0x8e2c753ebd666c4e8b309d0f5ba25ce978494f1ac1a320062bc18352e756f4a90xd44f70b4141462612022-08-15 20:23:0343 days 3 hrs ago0x83e1190e931ca0f416138b55a5760ca016407397OUT 0xc95daf083b754210458e62ead997453f74f470720 ETH0.00000832
0x3454a35b4b62aaac677e3e1814f593a8645073526b19f0e090891812ac62e4720xd44f70b4141462502022-08-15 20:21:3743 days 3 hrs ago0x83e1190e931ca0f416138b55a5760ca016407397OUT 0xc95daf083b754210458e62ead997453f74f470720 ETH0.00000784
0x5962dc508fe564d2e1ae781c8b335223dcef320c2760a1976ee11babe309eff00xd44f70b4141462332022-08-15 20:20:3943 days 3 hrs ago0x83e1190e931ca0f416138b55a5760ca016407397OUT 0xc95daf083b754210458e62ead997453f74f470720.15 ETH0.00000559
0xd63933169a54c70c869c6e45ffdaebadd11c1dd82c32381278a96d9c07ddbd800xd44f70b4141462262022-08-15 20:20:0943 days 3 hrs ago0x83e1190e931ca0f416138b55a5760ca016407397OUT 0xc95daf083b754210458e62ead997453f74f470720.003 ETH0.00001243
0xd30a3ddeb629ecaf357505b34e5d6e03753bd6dbc491eea17df858da902ef68b0xd44f70b4141462142022-08-15 20:19:2143 days 3 hrs ago0x83e1190e931ca0f416138b55a5760ca016407397OUT 0xc95daf083b754210458e62ead997453f74f470720 ETH0.00001484
0x51ca24dbfdf1fac913a3376767be45e82c3e93241ea176ad70602780a1dbc1480xd44f70b4141462102022-08-15 20:18:3643 days 3 hrs ago0x83e1190e931ca0f416138b55a5760ca016407397OUT 0xc95daf083b754210458e62ead997453f74f470720 ETH0.00001602
0xe690ba1ee38de8f62e95d24c40f13eaa80ccd063f34f7bb5f058a64f538fc18fApprove141462072022-08-15 20:18:2643 days 3 hrs ago0x83e1190e931ca0f416138b55a5760ca016407397OUT 0xa11d059cbaab1cfd00a44673441adc99e25a25e00 ETH0.00000465
0xbe80395bea598ef2b7c8c8df0cac22ad8bc86f8470c8a3428246574d187f98300xd44f70b4140929592022-08-12 15:43:2546 days 8 hrs ago0x83e1190e931ca0f416138b55a5760ca016407397OUT 0xc95daf083b754210458e62ead997453f74f470720 ETH0.00002299
0xabccd21bfa735c1c9d78a729e5cffbb711aa21dc1d24a8e5f8201c75afd8696bApprove140929562022-08-12 15:43:1746 days 8 hrs ago0x83e1190e931ca0f416138b55a5760ca016407397OUT 0xa2b376c51241c84861f4e02611a9e35bb43ecc720 ETH0.00000465
0x7622ca08fe76dda09a258a1587f1bb7b503250eec48af55b6a8c907592fcf62d0xd44f70b4140701302022-08-11 5:31:5147 days 18 hrs ago0x83e1190e931ca0f416138b55a5760ca016407397OUT 0xc95daf083b754210458e62ead997453f74f470720 ETH0.00002425
0xd5e44e290a210047624afa5cd43a0474221f741d0da850f312a84e601ccc0751Approve140701292022-08-11 5:31:4647 days 18 hrs ago0x83e1190e931ca0f416138b55a5760ca016407397OUT 0x4c64fafa8476349e391c41be4a26e3de9435c32a0 ETH0.00000465
0x56c1a9bfe8d5a7be463b2f9f3299d5b85026bb9b998975ecf583b8e94e5759840x46e04a2f140701192022-08-11 5:31:1647 days 18 hrs ago0x83e1190e931ca0f416138b55a5760ca016407397OUT 0xa11d059cbaab1cfd00a44673441adc99e25a25e00 ETH0.00000733
0x102aeec2e651ea3a86f83e6b47ae2c88efca08b0901a8f44064fdcdc2018b5ed0x46e04a2f140701172022-08-11 5:31:1147 days 18 hrs ago0x83e1190e931ca0f416138b55a5760ca016407397OUT 0xa2b376c51241c84861f4e02611a9e35bb43ecc720 ETH0.00000733
0x961766b92ad18847ae74e6602b69822da0da3da666c98740366eb492c2eebd5a0x46e04a2f140701162022-08-11 5:31:0747 days 18 hrs ago0x83e1190e931ca0f416138b55a5760ca016407397OUT 0x4c64fafa8476349e391c41be4a26e3de9435c32a0 ETH0.00000733
[ Download CSV Export 
Latest 9 internal transactions
Parent Txn Hash Block From To Value
0x431eb70735de10445400e67a7030e6faf4e12239cfa274a38789ebe3efc69d7f144957512022-08-20 23:39:2838 days 4 mins ago 0xc95daf083b754210458e62ead997453f74f470720x83e1190e931ca0f416138b55a5760ca0164073970.255799625074019218 ETH
0xb492495bf786a16450c088066006df6983f83c82a75edd44c34168f66fe2e694144957492022-08-20 23:39:2138 days 4 mins ago 0xc95daf083b754210458e62ead997453f74f470720x83e1190e931ca0f416138b55a5760ca0164073970.255799625074019218 ETH
0x164d54ceccd9767b0d565415965fb2496e26fafc9f518c50b9b70ef84834e18b144957442022-08-20 23:38:5238 days 5 mins ago 0xc95daf083b754210458e62ead997453f74f470720x83e1190e931ca0f416138b55a5760ca0164073970.525404527797925825 ETH
0xe6f0be39a00e0b86ef67d4bebd27c5c584df7cc8993e9c3fca02143b08f946f1144957302022-08-20 23:37:4738 days 6 mins ago 0xc95daf083b754210458e62ead997453f74f470720x83e1190e931ca0f416138b55a5760ca0164073970.524984967584583867 ETH
0x6fea1d5bc0e32080f038873216761bfd4fbbad0fa4093d82acbc607937087b20144957212022-08-20 23:37:2238 days 6 mins ago 0xc95daf083b754210458e62ead997453f74f470720x83e1190e931ca0f416138b55a5760ca0164073978.442417916090868828 ETH
0xdd6ebd7d2e141a3f6c6c95cbd644d1259ff1530dd32183a27a5aa6a3dc482e54141463412022-08-15 20:32:0143 days 3 hrs ago 0xf5de760f2e916647fd766b4ad9e85ff943ce3a2b0x83e1190e931ca0f416138b55a5760ca0164073970.5 ETH
0x3868cccbb0e6ba792688bdbab0ce4ad823f3cf0e3f3f26086be51d4dbdb51b69139513212022-08-02 0:44:1156 days 22 hrs ago 0xf5de760f2e916647fd766b4ad9e85ff943ce3a2b0x83e1190e931ca0f416138b55a5760ca0164073970.5 ETH
0xa1139d4bcca09aa5bc6b7cdcf8025c5c454e37514353ddf5769e77c268997d1e136486312022-07-13 21:46:0676 days 1 hr ago 0xebbc3452cc911591e4f18f3b36727df45d6bd1f90x83e1190e931ca0f416138b55a5760ca0164073970.5 ETH
0xe558564ddcc6d7e98c48facce17543bf067ef518183405b36ac8a48235a9122e136485852022-07-13 21:42:0676 days 2 hrs ago 0xf5de760f2e916647fd766b4ad9e85ff943ce3a2b0x83e1190e931ca0f416138b55a5760ca0164073970.5 ETH
[ Download CSV Export 
Loading

Contract Name:
0 ETH

Compiler Version
0

Optimization Enabled:
0 ETH

Other Settings:
-NA-
Block Transaction Gas Used Reward
Age Block Fee Address BC Fee Address Voting Power Jailed Incoming
Block Uncle Number Difficulty Gas Used Reward
Loading